CFG65N EDDM-LYTV

Flight info

Callsign CFG65N
Flight time N/A
Altitude 33000
Route VAVOR3E/08R VAVOR M867 RADIZ DCT GIMIX/N0455F350 DCT SABAD DCT NERRA DCT DBK DCT TAZ
Aircraft B753/M-SDE3FGHIM3RWXY/LB1

Departure

Time 2026-05-01 12:28
Airport Munich Airport (EDDM)

Arrival

Time N/A
Airport Tivat Airport (LYTV)
Time Latitude Longitude Altitude Speed Heading
2026-05-01 11:05 48.35051 11.80601 1475 ft 0 kts 174°
2026-05-01 12:08 48.35052 11.80601 1475 ft 1 kts 174°
2026-05-01 12:09 48.35067 11.80598 1475 ft 2 kts 174°
2026-05-01 12:09 48.35081 11.80596 1475 ft 2 kts 174°
2026-05-01 12:09 48.35094 11.80594 1475 ft 2 kts 174°
2026-05-01 12:09 48.35109 11.80591 1475 ft 2 kts 174°
2026-05-01 12:10 48.35124 11.80590 1475 ft 2 kts 190°
2026-05-01 12:10 48.35146 11.80613 1475 ft 2 kts 243°
2026-05-01 12:10 48.35149 11.80628 1475 ft 0 kts 263°
2026-05-01 12:11 48.35149 11.80635 1475 ft 0 kts 263°
2026-05-01 12:14 48.35146 11.80589 1475 ft 6 kts 263°
2026-05-01 12:14 48.35137 11.80483 1475 ft 14 kts 263°
2026-05-01 12:14 48.35125 11.80331 1475 ft 14 kts 263°
2026-05-01 12:14 48.35110 11.80196 1476 ft 12 kts 260°
2026-05-01 12:15 48.35100 11.80084 1476 ft 10 kts 263°
2026-05-01 12:15 48.35093 11.80001 1476 ft 8 kts 263°
2026-05-01 12:15 48.35087 11.79911 1476 ft 11 kts 265°
2026-05-01 12:15 48.35078 11.79776 1477 ft 13 kts 263°
2026-05-01 12:16 48.35067 11.79652 1477 ft 11 kts 263°
2026-05-01 12:16 48.35050 11.79559 1477 ft 7 kts 236°
2026-05-01 12:16 48.35016 11.79528 1478 ft 4 kts 178°
2026-05-01 12:16 48.34985 11.79533 1478 ft 5 kts 173°
2026-05-01 12:17 48.34953 11.79540 1478 ft 0 kts 173°
2026-05-01 12:18 48.34916 11.79547 1478 ft 8 kts 173°
2026-05-01 12:18 48.34861 11.79558 1478 ft 7 kts 173°
2026-05-01 12:19 48.34813 11.79561 1478 ft 6 kts 181°
2026-05-01 12:19 48.34736 11.79556 1478 ft 17 kts 184°
2026-05-01 12:19 48.34666 11.79377 1479 ft 26 kts 264°
2026-05-01 12:19 48.34647 11.79106 1480 ft 25 kts 263°
2026-05-01 12:20 48.34629 11.78866 1482 ft 22 kts 264°
2026-05-01 12:20 48.34613 11.78641 1482 ft 20 kts 264°
2026-05-01 12:20 48.34598 11.78437 1483 ft 18 kts 264°
2026-05-01 12:20 48.34584 11.78256 1484 ft 16 kts 264°
2026-05-01 12:21 48.34572 11.78100 1484 ft 14 kts 263°
2026-05-01 12:21 48.34558 11.77954 1484 ft 16 kts 262°
2026-05-01 12:21 48.34541 11.77735 1485 ft 26 kts 264°
2026-05-01 12:21 48.34520 11.77441 1486 ft 28 kts 264°
2026-05-01 12:22 48.34501 11.77157 1487 ft 26 kts 262°
2026-05-01 12:22 48.34477 11.76896 1487 ft 24 kts 262°
2026-05-01 12:22 48.34457 11.76662 1488 ft 22 kts 264°
2026-05-01 12:22 48.34446 11.76447 1489 ft 19 kts 263°
2026-05-01 12:23 48.34429 11.76257 1489 ft 17 kts 262°
2026-05-01 12:23 48.34413 11.76090 1490 ft 15 kts 262°
2026-05-01 12:23 48.34401 11.75943 1490 ft 13 kts 264°
2026-05-01 12:23 48.34391 11.75809 1490 ft 13 kts 264°
2026-05-01 12:24 48.34382 11.75672 1491 ft 13 kts 264°
2026-05-01 12:24 48.34372 11.75528 1491 ft 14 kts 264°
2026-05-01 12:24 48.34363 11.75382 1491 ft 14 kts 264°
2026-05-01 12:24 48.34354 11.75246 1492 ft 3 kts 253°
2026-05-01 12:25 48.34329 11.75233 1492 ft 7 kts 173°
2026-05-01 12:25 48.34185 11.75259 1493 ft 13 kts 173°
2026-05-01 12:25 48.34099 11.75288 1493 ft 8 kts 146°
2026-05-01 12:26 48.34085 11.75344 1493 ft 4 kts 84°
2026-05-01 12:26 48.34086 11.75353 1493 ft 0 kts 84°
2026-05-01 12:27 48.34086 11.75358 1493 ft 1 kts 84°
2026-05-01 12:28 48.34131 11.75913 1492 ft 77 kts 84°
2026-05-01 12:28 48.34215 11.77019 1490 ft 134 kts 83°
2026-05-01 12:28 48.34469 11.80362 2154 ft 173 kts 87°
2026-05-01 12:29 48.34601 11.82115 2787 ft 178 kts 83°
2026-05-01 12:29 48.34745 11.84008 3250 ft 190 kts 83°
2026-05-01 12:29 48.35061 11.88217 4203 ft 215 kts 83°
2026-05-01 12:30 48.35401 11.92641 5582 ft 221 kts 84°
2026-05-01 12:30 48.35277 11.94869 6250 ft 224 kts 111°
2026-05-01 12:30 48.34352 11.96723 6885 ft 231 kts 137°
2026-05-01 12:31 48.33121 11.98226 7544 ft 234 kts 137°
2026-05-01 12:31 48.31870 11.99765 8191 ft 237 kts 138°
2026-05-01 12:31 48.30604 12.01288 8797 ft 241 kts 139°
2026-05-01 12:31 48.29100 12.02448 9380 ft 251 kts 166°
2026-05-01 12:32 48.27325 12.02569 9822 ft 267 kts 179°
2026-05-01 12:32 48.23418 12.02401 10513 ft 301 kts 179°
2026-05-01 12:32 48.21324 12.02291 11266 ft 303 kts 179°
2026-05-01 12:33 48.19195 12.02175 11893 ft 309 kts 179°
2026-05-01 12:33 48.17058 12.02055 12565 ft 313 kts 180°
2026-05-01 12:33 48.14893 12.02135 13178 ft 315 kts 166°
2026-05-01 12:33 48.12820 12.03110 13804 ft 314 kts 153°
2026-05-01 12:34 48.10823 12.04374 14459 ft 318 kts 154°
2026-05-01 12:34 48.08787 12.05647 15136 ft 319 kts 153°
2026-05-01 12:34 48.06746 12.06942 15775 ft 322 kts 153°
2026-05-01 12:34 48.04729 12.08225 16397 ft 325 kts 153°
2026-05-01 12:35 48.02679 12.09534 16982 ft 328 kts 153°
2026-05-01 12:35 48.00583 12.10873 17608 ft 330 kts 152°
2026-05-01 12:35 47.98474 12.12220 18202 ft 333 kts 152°
2026-05-01 12:35 47.96346 12.13580 18755 ft 336 kts 152°
2026-05-01 12:36 47.94234 12.14958 19203 ft 341 kts 148°
2026-05-01 12:36 47.92226 12.16972 19261 ft 354 kts 135°
2026-05-01 12:36 47.90325 12.19385 19276 ft 372 kts 135°
2026-05-01 12:36 47.88789 12.21302 19301 ft 387 kts 136°
2026-05-01 12:37 47.85341 12.25619 19509 ft 411 kts 136°
2026-05-01 12:37 47.82755 12.28851 20214 ft 413 kts 135°
2026-05-01 12:37 47.79946 12.32364 20851 ft 418 kts 135°
2026-05-01 12:38 47.77179 12.35822 21475 ft 422 kts 135°
2026-05-01 12:38 47.74880 12.38693 21985 ft 425 kts 135°
2026-05-01 12:38 47.72612 12.41522 22455 ft 429 kts 135°
2026-05-01 12:38 47.70312 12.44375 22928 ft 432 kts 135°
2026-05-01 12:39 47.67989 12.47242 23405 ft 435 kts 135°
2026-05-01 12:39 47.65680 12.50089 23835 ft 439 kts 135°
2026-05-01 12:39 47.63311 12.53006 24274 ft 442 kts 135°
2026-05-01 12:39 47.60881 12.55800 24722 ft 447 kts 139°
2026-05-01 12:40 47.58371 12.58516 25149 ft 450 kts 139°
2026-05-01 12:40 47.55852 12.61257 25599 ft 452 kts 139°
2026-05-01 12:40 47.53308 12.64024 25979 ft 455 kts 139°
2026-05-01 12:40 47.51087 12.66439 26292 ft 459 kts 139°
2026-05-01 12:41 47.49455 12.68212 26565 ft 460 kts 139°
2026-05-01 12:42 47.38080 12.80538 28167 ft 472 kts 139°
2026-05-01 12:42 47.35432 12.83398 28563 ft 474 kts 139°
2026-05-01 12:42 47.32789 12.86249 28835 ft 478 kts 139°
2026-05-01 12:42 47.30124 12.89120 29216 ft 479 kts 139°
2026-05-01 12:43 47.27436 12.92011 29549 ft 482 kts 139°
2026-05-01 12:43 47.24737 12.94911 29881 ft 484 kts 139°
2026-05-01 12:43 47.22337 12.97486 30161 ft 486 kts 139°